LogoCoinalyze
    Ad-Free Version Главная Рынки Ставки финансирования
    Фьючерсные данные
    • Агрегированные данные (Коины)
    • Индивидуальные графики
    • Глобальные графики
    Оповещения
    TA
    Bitcoin Ethereum BNB Ripple Tron ZCash Dogecoin Monero UNUS SED LEO Chainlink Cardano Stellar Lumens Bitcoin Cash Litecoin Hedera Cronos Polkadot Ethereum Classic Algorand Quant Cosmos VeChain Dash Bitcoin SV BitTorrent Terra Decred Tezos Iota The Graph THETA MultiversX Decentraland NEO Chiliz Golem Basic Attention Token Horizen Qtum 0x DigiByte Beam RIF Token FTX Token Holo FUNToken aelf Zilliqa Ontology Nano Enjin Coin Ravencoin Verge Mask Network Siacoin Status WINk Waves IoTeX Power Ledger iExec RLC Steem Kyber Network Crystal Lisk Ark Ardor WOO Network IOST WAX Icon Storj Wanchain Loopring Bitcoin Diamond Augur AdEx Bitcoin Gold OmiseGO NEM MonaCoin BitShares Ren V Systems Komodo Nuls Mithril SOLVE EOS Maker Aion Nebulas HedgeTrade Bread Fetch.ai TomoChain Polygon Fantom Waltonchain GXChain Bytom Metaverse ETP MaidSafeCoin QASH
    Заказать:
    Еще
    • API
    • Паттерны свечей
    • Пожертвования
    • Контактная
    • Карта сайта
    • Privacy Policy
    • Disclaimer
    • Theme:
    Русский
    • English
    • Français
    • Deutsch
    • Türkçe
    • Nederlands
    • Português (BR)
    • Español
    • 한국어
    • 简体中文
    • 日本語
     
    Войти / Подписаться
    Markets/ Pepe/ PEPE к FDUSD/ PEPEFDUSD Binance
    Trades
    WL
    Чат
    Стат
    Новости
    ⦷
    AAA
    0.00000346 32632741.00000000 03:35:05
    0.00000347 69344739.00000000 03:32:39
    0.00000347 993239.00000000 03:13:49
    0.00000347 470639.00000000 03:07:53
    0.00000347 522600.00000000 03:07:46
    0.00000346 421053.00000000 03:06:45
    0.00000346 419826.00000000 03:06:45
    0.00000347 2528656.00000000 03:06:44
    0.00000346 303738.00000000 03:06:42
    0.00000347 12004163.00000000 03:06:08
    0.00000348 990385.00000000 02:51:02
    0.00000348 69.00000000 02:34:24
    0.00000348 3511400.00000000 02:34:24
    0.00000348 990385.00000000 02:34:11
    0.00000347 444323.00000000 02:33:56
    0.00000347 443479.00000000 02:33:55
    0.00000347 2528656.00000000 02:33:52
    0.00000348 50903896.00000000 02:33:48
    0.00000347 2536274.00000000 02:31:40
    0.00000347 44688296.00000000 02:31:35
    0.00000346 2543863.00000000 02:29:27
    0.00000346 18887763.00000000 02:29:22
    0.00000345 606218.00000000 02:22:45
    0.00000345 2551499.00000000 02:13:41
    0.00000345 10660180.00000000 02:13:40
    0.00000344 2647982.00000000 02:07:15
    0.00000344 22.00000000 02:06:05
    0.00000344 1004800.00000000 02:06:05
    0.00000343 424779.00000000 02:05:12
    0.00000344 2551499.00000000 02:05:11
    0.00000343 423530.00000000 02:05:11
    0.00000343 422288.00000000 02:05:09
    0.00000344 418605.00000000 02:05:09
    0.00000344 418605.00000000 02:05:09
    0.00000344 444768.00000000 02:05:08
    0.00000344 444768.00000000 02:05:08
    0.00000343 423530.00000000 02:05:08
    0.00000344 2054980.00000000 02:05:08
    0.00000345 2543863.00000000 02:05:07
    0.00000344 18047100.00000000 02:05:05
    0.00000345 304347.00000000 01:46:58
    0.00000345 75.00000000 01:46:32
    0.00000345 584207100.00000000 01:46:32
    0.00000345 116747417.00000000 01:46:32
    0.00000345 116747417.00000000 01:46:28
    0.00000345 116747417.00000000 01:46:28
    0.00000345 116747417.00000000 01:46:28
    0.00000345 116747417.00000000 01:46:15
    0.00000345 446065.00000000 01:46:13
    0.00000345 116747417.00000000 01:46:12
    0.00000346 23749685.00000000 01:43:05
    0.00000346 163730300.00000000 01:43:05
    0.00000346 604379.00000000 01:42:58
    0.00000346 23749600.00000000 01:39:20
    0.00000346 996109.00000000 01:33:55
    0.00000346 996109.00000000 01:33:13
    0.00000346 12449900.00000000 01:30:48
    0.00000346 23749685.00000000 01:30:46
    0.00000346 9.00000000 01:30:02
    0.00000346 996100.00000000 01:30:01
    0.00000346 23749600.00000000 01:25:24
    0.00000346 14036128.00000000 01:25:19
    0.00000346 10825199.00000000 01:25:19
    0.00000346 23749600.00000000 01:24:57
    0.00000346 9.00000000 01:24:50
    0.00000346 996100.00000000 01:24:49
    0.00000346 2543863.00000000 01:23:56
    0.00000346 127929770.00000000 01:23:51
    0.00000345 448681.00000000 01:16:35
    0.00000345 447369.00000000 01:16:35
    0.00000344 2551499.00000000 01:16:32
    0.00000345 55937470.00000000 01:16:28
    0.00000344 2559105.00000000 01:12:19
    0.00000344 92213296.00000000 01:12:17
    0.00000343 2566833.00000000 01:07:12
    0.00000343 48619559.00000000 01:07:10
    0.00000342 8521695.00000000 01:05:42
    0.00000341 2574531.00000000 01:05:17
    0.00000342 2649572.00000000 01:05:14
    0.00000341 24097900.00000000 01:04:00
    0.00000341 24081326.00000000 01:03:57
    0.00000341 5438915.00000000 01:02:53
    0.00000341 2574531.00000000 01:01:35
    0.00000340 233494834.00000000 01:01:33
    0.00000341 604379.00000000 01:01:25
    0.00000341 4985338.00000000 00:33:39
    0.00000341 72333434.00000000 00:33:39
    0.00000342 2566833.00000000 00:20:32
    0.00000341 426036.00000000 00:20:31
    0.00000341 424779.00000000 00:20:29
    0.00000342 86.00000000 00:20:27
    0.00000342 10596500.00000000 00:20:27
    0.00000343 23957400.00000000 00:12:49
    0.00000343 2559105.00000000 00:08:14
    0.00000342 448681.00000000 00:08:14
    0.00000343 13109722.00000000 00:08:12
    0.00000344 1001901.00000000 00:06:02
    0.00000344 2559105.00000000 00:05:34
    0.00000344 66203217.00000000 00:05:30
    0.00000343 2649573.00000000 00:04:57
    Выйти
    AAA
    Помощь
    🙂 🤣 😎 🤗 😛 😉 😜 🤑 🤔 😑 😴 😕 🙃 😲 😇 🙁 😢 😬 😟 😠 🕺 🏃 💪 ✌ 👌 👍 👎 👏 👋 🤝 🍺 🍻 🐋 🐟 🦈 🗽 🚄 ✈ 🛑 🚀 🏦 🌚 ⭐ 🌞 ⚡ 🏆 💰 💲 🔨 ❓ ❗ 💯 🔶 🏁
    ☺
    Войти или Подписаться и Чат
    24 Часа
    Изменения
    -0.57%
    Объем
    19,235,564,249
    Хай
    0.00000348
    Лоу
    0.00000337
    7 Дней
    Изменения
    -10.36%
    Объем
    204,890,417,732
    Хай
    0.00000401
    Лоу
    0.00000337
    30 Дней
    Изменения
    +18.90%
    Объем
    1,391,295,152,195
    Хай
    0.00000456
    Лоу
    0.00000254
    DOGE, SHIB, PEPE, or Something Else: Which Meme Coin Can Make History in September? (3 AIs Weigh In)
    "DOGE remains the most likely to record the largest move in dollar terms and lead the entire sector," ChatGPT stated.
    cryptopotato.com
    Sept 3, 2026 00:41
    Pepe price rallies 25% as whale demand and futures interest surge
    Key takeaways Pepe has gained 25% this week, including a combined 22% advance over the previous two days. Seven whale transactions worth more than $1 million each occurred Thursday, the highest...
    coinjournal.net
    Aug 21, 2026 08:41
    PEPE Supply on Exchanges Just Took a Massive Hit – What’s Next?
    A drop in PEPE exchange balances has added to bullish expectations despite muted trader interest.
    cryptopotato.com
    Aug 6, 2026 20:02
    PEPE Exchange Outflows Hit Nearly 2-Year High as Whales Accumulate
    Pepe (PEPE) recorded its largest single-day exchange outflow since November 2024, with 4.54 trillion tokens leaving trading platforms, signaling that holders are moving supply away from immediate...
    beincrypto.com
    Aug 6, 2026 04:57
    Meme Coin Based on White House Shooter Conspiracy Rallies 320%
    $HENRY surged 300% after a 2023 Pepe tweet appeared to name the White House shooter, fueling a viral time-travel meme. The post Meme Coin Based on White House Shooter Conspiracy Rallies 320%...
    beincrypto.com
    Apr 27, 2026 16:11
    PEPE surges 4% as market sentiment improves, eyes Key resistance breakout
    Key takeaways Pepe extends gains on Wednesday, stretching its rally from the 50-day EMA. Derivatives data show heightened retail activity as risk-on sentiment returns to the market. Pepe (PEPE) is...
    coinjournal.net
    Apr 22, 2026 11:44
    Why The PEPE Price Could Stage A 55X Rally To Reach New $0.0001 ATH
    The PEPE price has now started to edge back into bullish conversations after the recent inflows into the crypto market. The last time PEPE’s weekly chart printed the kind of structure now...
    newsbtc.com
    Apr 21, 2026 15:30
    Pepe (PEPE) surges 9%, drawing interest from whales
    Key takeaways PEPE is up 9% in the last 24 hours, making it one of the best performers among the top 50 cryptocurrencies by market cap. The rally comes amid renewed interest from whales and retail...
    coinjournal.net
    Apr 16, 2026 07:40
    Murad Says SPX6900 (SPX) Is Primed for a Rally — Is He Right This Time?
    Crypto influencer Murad Mahmudov claims SPX6900 (SPX) is stabilizing at the same market cap level where Dogecoin (DOGE) and Pepe (PEPE) consolidated before their explosive rallies. The...
    beincrypto.com
    Apr 5, 2026 21:36
    The Shiba Inu Of This Cycle: Analyst Shares Why It Is Better To Buy PEPE Now
    In the bull market cycle of 2021-2022, the Shiba Inu meme coin made waves in a way that changed the face of meme coins forever. This came after Dogecoin’s initial 36,000% rally, and Shiba Inu...
    newsbtc.com
    Apr 4, 2026 07:30
    PEPE Explodes by 18% Amid Altcoin Rally, BTC Tapped $74K: Market Watch
    The frog-themed meme coin is today's biggest gainer, followed by TAO, DOT, and BONK.
    cryptopotato.com
    Mar 16, 2026 10:56
    Should PEPE traders brace for volatility as short squeeze potential builds?
    The memecoin market has seen its collective market capitalization drop by 48% over the past year, and 6.9% over the past month, according to CoinMarketCap. According to Glassnode, the memecoin...
    ambcrypto.com
    Mar 7, 2026 18:00
    Просто напечатайте соответствующую команду в чате. Заменить никнейм 1 на действительный никнейм
    • /ignore nick1 Игнорировать пользователя чатом
    • /unignore nick1 Перестать игнорировать пользователя чатом
    • /ignorelist Показать проигнорированных пользователей чатом